Weather Roundup
Issued by NWS

Home | Current Version | Previous Version | Text Only | Print | Product List | Glossary On
Versions: 1 2 3 4 5 6 7 8 9 10 11 12 13 14 15 16 17 18 19 20 21 22 23 24 25 26 27 28 29 30 31 32 33 34 35 36 37 38 39 40 41 42 43 44 45 46 47 48 49 50
000
NZUS93 KARX 111310
HRRWXR

CURRENT HOURLY OBSERVATIONS ACROSS
MUCH OF THE UPPER MISSISSIPPI VALLEY
NATIONAL WEATHER SERVICE LA CROSSE WI
700 AM CST MON DEC 11 2017


...SOUTHEAST MINNESOTA...


CITY           SKY/WX    TMP DP  RH WIND       PRES   REMARKS
ROCHESTER      CLOUDY    28  24  85 S10       29.72F WCI  19
ROCHESTER/MAYO CLOUDY    29  25  83 S6        29.73F WCI  23
WINONA         PTCLDY    27  25  93 SE3       29.78F
AUSTIN         CLOUDY    28  23  80 S6        29.73F WCI  22
ALBERT LEA     CLOUDY    32  25  74 S6        29.72F WCI  26
DODGE CENTER   CLOUDY    30  25  80 S9        29.70F WCI  22
PRESTON        CLOUDY    27  23  83 S10       29.75F WCI  17
OWATONNA       NOT AVBL
FARIBAULT      CLOUDY    30  27  86 CALM      29.73R
$$

...ELSEWHERE IN MINNESOTA...


CITY           SKY/WX    TMP DP  RH WIND       PRES   REMARKS
MINNEAPOLIS    FRZ RAIN  30  29  96 SE8       29.70F FOG     WCI  22
INTNL FALLS    CLOUDY    20  16  84 N5        29.74R WCI  13
DULUTH         FLURRIES  20  20 100 S7        29.67F WCI  11
RED WING       CLOUDY    28  23  80 SE3       29.74F
REDWOOD FALLS  CLOUDY    38  26  62 NW10      29.72S WCI  31
MANKATO        MIX PCPN  31  28  89 S6        29.73S WCI  25
WORTHINGTON    CLOUDY    36  27  69 NW30G37   29.77R WCI  23
FAIRMONT       CLOUDY    35  27  72 W14       29.73F WCI  26
$$

...SOUTHWEST WISCONSIN...


CITY           SKY/WX    TMP DP  RH WIND       PRES   REMARKS
LA CROSSE      PTCLDY    27  22  81 S8        29.79F WCI  19
PRAIRIE DU CHI CLOUDY    28  22  77 E6        29.82F WCI  22
BOSCOBEL       CLOUDY    26  21  81 CALM      29.84F
LONE ROCK      CLOUDY    25  23  92 E8        29.85F FOG     WCI  16
PLATTEVILLE    PTCLDY    26  24  95 SE7       29.84F WCI  18
FORT MC COY    CLOUDY    26  23  87 S6        29.81F WCI  20
CAMP DOUGLAS   CLOUDY    25  21  87 S9        29.81F WCI  15
MAUSTON-NEW LI CLOUDY    25  22  88 S6        29.82F WCI  18
VIROQUA        PTSUNNY   24  24  97 SE12      29.78F WCI  13
WIS DELLS      CLOUDY    24  21  90 S10G16    29.84F WCI  13
$$

...ELSEWHERE IN WISCONSIN...


CITY           SKY/WX    TMP DP  RH WIND       PRES   REMARKS
MILWAUKEE      LGT SNOW  25  22  88 S7        29.93F WCI  17
MADISON        CLOUDY    24  21  88 S10       29.87F WCI  14
GREEN BAY      FLURRIES  22  20  92 S6        29.91S WCI  14
EAU CLAIRE     CLOUDY    25  22  88 S6        29.76F FOG     WCI  18
BLACK RVR FLS  CLOUDY    25  22  86 SE5       29.79F WCI  20
MEDFORD        CLOUDY    20  18  94 S9        29.76F FOG     WCI   9
WAUSAU         CLOUDY    20  18  92 S7        29.80F FOG     WCI  11
WIS RAPIDS     CLOUDY    22  20  92 S6        29.84F WCI  14
MARSHFIELD     CLOUDY    22  20  92 S10       29.78F WCI  11
RICE LAKE      CLOUDY    24  23  96 CALM      29.75F
$$

...NORTHEAST IOWA...


CITY           SKY/WX    TMP DP  RH WIND       PRES   REMARKS
WATERLOO       CLOUDY    31  23  72 S3        29.77F
DUBUQUE        CLOUDY    26  22  84 S12       29.82F WCI  16
DECORAH        MOCLDY    27  23  86 S6        29.77F WCI  20
MASON CITY     CLOUDY    31  23  72 SW7       29.75F WCI  24
CHARLES CITY   CLOUDY    28  27  93 S8        29.75F WCI  20
OELWEIN        CLOUDY    28  27  93 SE10      29.77F WCI  19
$$

...ELSEWHERE IN IOWA...


CITY           SKY/WX    TMP DP  RH WIND       PRES   REMARKS
DES MOINES     CLOUDY    33  24  69 SW8       29.80F WCI  26
IOWA CITY      CLOUDY    31  24  75 SE5       29.84F WCI  26
FORT DODGE     CLOUDY    33  23  66 SW7       29.76F WCI  27
MARSHALLTOWN   PTCLDY    33  24  69 S6        29.75F WCI  28
CEDAR RAPIDS   CLOUDY    31  25  78 SE6       29.80F WCI  25
$$

...NORTHERN ILLINOIS...


CITY           SKY/WX    TMP DP  RH WIND       PRES   REMARKS
CHICAGO-OHARE  CLOUDY    28  20  71 S7        29.96S WCI  21
CHICAGO-MIDWAY CLOUDY    29  21  72 S9        29.97F WCI  20
MOLINE         CLOUDY    34  25  69 S8        29.84F WCI  27
ROCKFORD       CLOUDY    26  21  81 S7        29.94F WCI  18
PEORIA         CLOUDY    29  24  82 S8        29.94F WCI  21
$$

NOTE: "FAIR" INDICATES FEW OR NO CLOUDS BELOW 12,000 FEET WITH NO
SIGNIFICANT WEATHER AND/OR OBSTRUCTIONS TO VISIBILITY. WIND
SPEEDS ARE IN MILES-PER-HOUR.




USA.gov is the U.S. government's official web portal to all federal, state and local government web resources and services.